Погода в Иванине

Россия / Курская область     51°38′50″N   35°35′07″E
темп.,
°C
ветер,
м/с
пор.,
м/с
влажн.,
%
обл.,
%
осадки,
мм/ч
давл.,
гПа
погр.,
м
7 марта, вс
вс700:00−10з34940 0.0 102151
03:00−11зюз46930 0.0 1020106
06:00−10юз5129134 0.0 1018267
09:00−7юз8178257 0.0 1015567
12:00−2юз111780100 0.0 10111027
15:00−1зюз121891100 0.1 10071309
18:00−1зюз111891100 0.3 10051146
21:00−1з101793100 0.6 10051071
8 марта, пн
пн800:00−1зсз5109697 1.1 1005578
03:00−4з379798 2.1 1005215
06:00−5зюз4993100 0.1 1004264
09:00−3з61194100 0.4 1005679
12:00−3зсз7983100 0.3 10061169
15:00−3з698199 0.4 10071061
18:00−5з498897 0.1 1008310
21:00−6зсз489499 0.3 1010203
9 марта, вт
вт900:00−10сз469262 0.0 1012108
03:00−12сз349549 0.0 101374
06:00−13зсз339654 0.0 101552
09:00−10сз469576 0.1 1017279
12:00−8сз4690100 0.1 1018532
15:00−7сз4685100 0.1 1019773
18:00−10сз3389100 0.1 102054
21:00−13сз338764 0.1 102230
10 марта, ср
ср1000:00−15ссз33890 0.0 102326
03:00−16ссз22910 0.0 102420
06:00−17ссз11930 0.0 102520
09:00−14ссв119014 0.0 102634
12:00−10ююз118497 0.0 1026290
15:00−8ююз117899 0.0 1026474
18:00−10ююв1288100 0.0 102621
21:00−12ююв228998 0.0 102721
11 марта, чт
чт1100:00−13ююв228886 0.0 102720
03:00−14юв228988 0.0 102820
06:00−14юв23900 0.0 102824
09:00−11ююв34890 0.0 1028140
12:00−5ю468088 0.0 1027517
15:00−3ю577493 0.0 1026990
18:00−6ююв348220 0.0 102564
21:00−8ююв5107510 0.0 1024161